#timestamp,LO_Frequency,Hit,StdDev 
1512846015.8,286047002.7,N
1512846035.6,286047001.7,N
1512846055.5,286047001.3,N
1512846075.3,286047001.9,N
1512846095.1,286047002.0,N
1512846115.9,286046999.7,N
1512846135.7,286047001.9,N
1512846155.6,286047002.7,N
1512846175.4,286046999.7,N
1512846195.2,286047002.1,N
1512846215.1,286047002.3,N
1512846216.0,286047002.3,N
1512846235.8,286047000.0,N
1512846255.7,286046999.7,N
1512846275.5,286047000.1,N
1512846295.3,286047001.3,N
1512846315.2,286047002.4,N
1512846335.9,286046999.8,N
1512846355.7,286047002.5,N
1512846375.6,286047001.6,N
1512846395.4,286047001.5,N
1512846415.3,286047000.0,N
1512846435.1,286046999.7,N
1512846436.0,286046999.7,N
1512846455.8,286047002.3,N
1512846475.7,286047000.4,N
1512846495.5,286046999.8,N
1512846515.3,286047002.2,N
1512846535.2,286047001.5,N
1512846555.0,286047002.7,N
1512846555.9,286047002.7,N
1512846575.8,286047000.3,N
1512846595.6,286047000.3,N
1512846615.4,286046998.5,N
1512846635.3,286046998.5,N
1512846655.1,286047000.3,N
1512846675.8,286046998.2,N
1512846695.7,286047000.4,N
1512846715.5,286047000.7,N
1512846735.4,286047000.8,N
1512846755.2,286047000.2,N
1512846775.0,286047002.3,N
1512846775.9,286047002.3,N
1512846795.8,286047002.3,N
1512846815.6,286047001.9,N
1512846835.5,286047004.3,Y
1512846855.3,286047001.5,P
1512846875.1,286047002.7,P
1512846895.9,286047002.5,P
1512846915.7,286046999.9,N
1512846935.6,286047000.0,N
1512846955.4,286047000.4,N
1512846975.2,286046998.7,N
1512846995.1,286047000.9,N
1512846996.0,286047000.9,N
1512847015.8,286047001.1,N
1512847035.6,286046999.1,N
1512847055.5,286047001.0,N
1512847075.3,286047001.0,N
1512847095.2,286047002.8,N
1512847115.9,286046999.9,N
1512847135.7,286047000.3,N
1512847155.6,286046998.6,N
1512847175.4,286047000.8,N
1512847195.2,286047001.1,N
1512847215.1,286047000.2,N
1512847216.0,286047000.2,N
1512847235.8,286046999.7,N
1512847255.7,286047000.7,N
1512847275.5,286046999.8,N
1512847295.3,286047000.1,N
1512847315.2,286046999.8,N
1512847335.0,286047002.4,N
1512847335.9,286047002.4,N
1512847355.8,286047002.7,N
1512847375.6,286047002.5,N
1512847395.4,286047001.9,N
1512847415.3,286047002.4,N
1512847435.1,286047002.3,N
1512847455.9,286047002.1,N
1512847475.7,286047000.2,N
1512847495.5,286047000.3,N
1512847515.4,286046999.9,N
1512847535.2,286047001.2,N
1512847555.0,286046999.9,N
1512847555.9,286046999.9,N
1512847575.8,286047001.0,N
1512847595.6,286047002.1,N
1512847615.5,286046998.1,N
1512847635.3,286047001.2,N
1512847655.1,286046999.8,N
1512847675.9,286046999.8,N
1512847695.7,286047002.5,N
1512847715.5,286047002.4,N
1512847735.4,286047002.4,N
1512847755.2,286047002.4,N
1512847775.1,286047000.1,N
1512847776.0,286047000.1,N
1512847795.8,286047002.1,N
1512847815.6,286047004.3,Y
1512847835.5,286047000.0,P
1512847855.3,286046999.8,N
1512847875.1,286046999.9,N
1512847895.9,286047000.5,N
1512847915.7,286047000.6,N
1512847935.6,286047000.0,N
1512847955.4,286046998.4,Y
1512847975.3,286046998.6,P
1512847995.1,286046998.2,N
1512847996.0,286046998.2,N
1512848015.8,286046999.4,N
1512848035.7,286046996.6,Y
1512848055.5,286046998.4,P
1512848075.3,286047001.1,P
1512848095.2,286047002.3,N
1512848115.0,286047002.2,N
1512848115.9,286047002.2,N
1512848135.8,286047001.2,N
1512848155.6,286046998.9,N
1512848175.4,286046998.6,N
1512848195.3,286047001.5,N
1512848215.1,286047001.8,N
1512848235.9,286047003.9,N
1512848255.7,286047003.7,N
1512848275.5,286047004.4,N
1512848295.4,286047002.1,N
1512848315.2,286046999.8,N
1512848335.0,286047001.2,N
1512848335.9,286047001.2,N
1512848355.8,286046998.5,N
1512848375.6,286047000.8,N
1512848395.5,286047002.6,N
1512848415.3,286047000.4,N
1512848435.1,286046998.4,N
1512848455.9,286046998.3,N
1512848475.7,286047001.2,N
1512848495.5,286047000.3,N
1512848515.4,286046999.7,N
1512848535.2,286047002.2,N
1512848585.1,286047004.1,E
1512848595.0,286047001.9,N
1512848595.9,286047001.9,P
1512848615.8,286046999.0,P
1512848635.6,286046996.9,N
1512848655.4,286046996.5,N
1512848675.3,286046999.6,N
1512848695.1,286046998.4,N
1512848715.8,286046996.5,N
1512848735.7,286046997.5,N
1512848755.5,286046995.5,N
1512848775.4,286046996.0,N
1512848795.2,286046993.5,Y
1512848815.0,286046995.0,P
1512848815.9,286046995.0,P
1512848835.8,286046997.2,N
1512848855.6,286046998.9,N
1512848875.5,286046996.6,N
1512848895.3,286046998.4,N
1512848915.1,286046999.9,N
1512848935.9,286047000.4,N
1512848955.7,286047001.1,N
1512848975.6,286046998.9,N
1512848995.4,286046997.0,N
1512849015.2,286046996.6,N
1512849035.1,286046998.4,N
1512849036.0,286046998.4,N
1512849055.8,286046998.7,N
1512849075.7,286046998.7,N
1512849095.5,286046998.7,N
1512849115.3,286047000.0,N
1512849135.2,286046998.8,N
1512849155.0,286046996.9,N
1512849155.9,286046996.9,N
1512849175.8,286046996.6,N
1512849195.6,286046996.9,N
1512849215.4,286046997.8,N
1512849235.3,286046996.8,N
1512849255.1,286047001.0,N
1512849275.8,286047001.1,N
1512849295.7,286047000.8,N
1512849315.5,286047000.4,N
1512849335.4,286047002.4,N
1512849355.2,286047000.3,N
1512849375.0,286046999.9,N
1512849375.9,286046999.9,N
1512849395.8,286047002.8,N
1512849415.6,286047000.9,N
1512849435.4,286046998.5,N
1512849455.3,286046999.7,N
1512849475.1,286047002.6,N
1512849495.9,286047002.5,N
1512849515.7,286047001.6,N
1512849535.5,286047001.6,N
1512849555.4,286047003.7,N
1512849575.2,286046999.8,N
1512849595.0,286047000.1,N
1512849596.0,286047000.1,N
